Weather reports worldwide

Advertisment
Huelva, Spain (8383): temperature & dewpoint: 20.09.2018 11:00:00 - 26.09.2018 11:00:00 (CEST)Huelva, Spain (8383): wind speed: 20.09.2018 11:00:00 - 26.09.2018 11:00:00 (CEST)Huelva, Spain (8383): wind direction: 20.09.2018 11:00:00 - 26.09.2018 11:00:00 (CEST)Huelva, Spain (8383): reduced air pressure: 20.09.2018 11:00:00 - 26.09.2018 11:00:00 (CEST)Huelva, Spain (8383): visibility: 20.09.2018 11:00:00 - 26.09.2018 11:00:00 (CEST)Huelva, Spain (8383): precipitation: 20.09.2018 11:00:00 - 26.09.2018 11:00:00 (CEST)
Date & Time tt [°C] td [°C] ff [km/h] ff [kn] dd ppp [hPa] vv [km] rr [mm]
26.09.2018 11:00:00 27,0 17,2 9 5 E 1022,5 12 -
26.09.2018 10:00:00 23,8 16,8 9 5 ENE 1021,9 20 0,0
26.09.2018 09:00:00 20,1 16,1 8 4 NE 1021,8 19 0,0
26.09.2018 08:00:00 19,7 16,0 8 4 NE 1021,1 10 -
26.09.2018 07:00:00 20,5 16,5 8 4 NE 1020,5 19 0,0
26.09.2018 06:00:00 21,0 17,2 4 2 NNE 1020,2 20 0,0
26.09.2018 05:00:00 21,4 17,4 4 2 NE 1020,1 20 -
26.09.2018 04:00:00 21,4 17,2 8 4 NNE 1020,2 20 0,0
26.09.2018 03:00:00 21,9 16,8 5 3 NE 1020,5 20 0,0
26.09.2018 02:00:00 23,6 18,9 9 5 NNW 1020,6 20 -
26.09.2018 01:00:00 24,1 19,0 8 4 NW 1020,3 20 0,0
26.09.2018 00:00:00 24,6 18,8 5 3 WSW 1020,1 20 0,0
25.09.2018 23:00:00 25,0 18,4 4 2 WSW 1019,8 20 -
25.09.2018 22:00:00 25,9 19,1 5 3 WSW 1019,1 20 0,0
25.09.2018 21:00:00 26,7 19,3 8 4 WSW 1018,5 20 0,0
25.09.2018 20:00:00 28,5 19,2 9 5 SSW 1018,1 20 -
25.09.2018 19:00:00 30,4 18,5 15 8 SSW 1017,8 20 0,0
25.09.2018 18:00:00 31,5 17,8 18 10 SSW 1017,9 20 0,0
25.09.2018 17:00:00 32,8 17,4 21 11 S 1018,0 20 -
25.09.2018 16:00:00 34,1 15,1 21 11 SSW 1018,3 20 0,0
25.09.2018 15:00:00 34,4 13,3 21 11 SSW 1018,7 20 0,0
25.09.2018 14:00:00 34,0 14,5 18 10 S 1019,5 16 -
25.09.2018 13:00:00 34,6 9,8 16 9 SE 1019,7 20 0,0
25.09.2018 12:00:00 31,9 12,2 8 4 SSE 1019,7 8 0,0
25.09.2018 11:00:00 27,2 12,0 8 4 E 1019,9 14 -
25.09.2018 10:00:00 23,2 10,9 5 3 ENE 1019,5 15 0,0
25.09.2018 09:00:00 21,0 9,9 9 5 NE 1019,1 17 0,0
25.09.2018 08:00:00 19,8 9,4 8 4 NNE 1018,6 12 -
25.09.2018 07:00:00 19,9 9,7 5 3 NNE 1018,3 16 0,0
25.09.2018 06:00:00 20,6 9,8 5 3 NE 1018,2 19 0,0
25.09.2018 05:00:00 21,0 10,5 9 5 NE 1018,4 20 -
25.09.2018 04:00:00 21,6 11,6 11 6 NE 1018,4 20 0,0
25.09.2018 03:00:00 22,9 13,4 8 4 NNE 1018,7 20 0,0
25.09.2018 02:00:00 24,1 14,2 5 3 SSW 1018,8 14 -
25.09.2018 01:00:00 23,9 17,9 2 1 E 1019,1 20 0,0
25.09.2018 00:00:00 25,0 18,0 2 1 WSW 1019,1 20 0,0
24.09.2018 23:00:00 27,0 15,7 4 2 SSW 1018,8 6 -
24.09.2018 22:00:00 28,3 13,0 9 5 SW 1018,0 20 0,0
24.09.2018 21:00:00 30,0 9,0 9 5 WSW 1017,4 20 0,0
24.09.2018 20:00:00 31,9 9,4 13 7 SW 1017,1 20 -
24.09.2018 19:00:00 34,3 9,5 15 8 SW 1016,5 20 0,0
24.09.2018 18:00:00 35,8 10,1 16 9 SW 1016,6 20 0,0
24.09.2018 17:00:00 37,2 11,2 15 8 SW 1017,0 20 -
24.09.2018 16:00:00 37,3 11,3 15 8 SW 1017,4 20 0,0
24.09.2018 15:00:00 37,9 10,3 5 3 ESE 1018,1 20 0,0
24.09.2018 14:00:00 36,6 12,1 13 7 ESE 1019,0 18 -
24.09.2018 13:00:00 34,9 10,0 9 5 NE 1019,6 20 0,0
24.09.2018 12:00:00 32,3 10,9 8 4 NE 1020,1 19 0,0
24.09.2018 11:00:00 28,2 10,8 8 4 NE 1020,1 15 -
24.09.2018 10:00:00 24,0 9,9 5 3 ENE 1019,9 14 0,0
24.09.2018 09:00:00 20,5 9,4 5 3 NNE 1019,6 20 0,0
24.09.2018 08:00:00 19,4 9,3 9 5 NE 1019,4 15 -
24.09.2018 07:00:00 20,0 9,0 5 3 NNE 1018,9 20 0,0
24.09.2018 06:00:00 20,2 9,4 5 3 N 1018,8 20 0,0
24.09.2018 05:00:00 20,7 9,0 5 3 NE 1019,2 20 -
24.09.2018 04:00:00 22,1 8,6 4 2 NNE 1019,3 20 0,0
24.09.2018 03:00:00 22,8 9,9 5 3 NNE 1019,7 20 0,0
24.09.2018 02:00:00 23,3 9,7 8 4 NNE 1019,8 20 -
24.09.2018 01:00:00 23,4 9,4 5 3 NNE 1019,9 20 0,0
24.09.2018 00:00:00 24,6 10,1 4 2 NNE 1020,0 20 0,0
23.09.2018 23:00:00 26,6 12,3 8 4 WNW 1019,6 20 -
23.09.2018 22:00:00 27,4 11,0 5 3 WSW 1019,2 20 0,0
23.09.2018 21:00:00 28,9 11,0 9 5 WSW 1018,7 20 0,0
23.09.2018 20:00:00 31,0 10,9 13 7 SW 1018,6 20 -
23.09.2018 19:00:00 33,0 10,9 16 9 SSW 1018,4 20 0,0
23.09.2018 18:00:00 35,1 10,2 16 9 WSW 1018,0 20 0,0
23.09.2018 17:00:00 36,0 10,9 16 9 SW 1018,3 20 -
23.09.2018 16:00:00 37,6 10,0 11 6 S 1018,7 20 0,0
23.09.2018 15:00:00 36,8 9,4 13 7 ESE 1019,4 20 0,0
23.09.2018 14:00:00 35,9 9,4 9 5 ENE 1020,1 20 -
23.09.2018 13:00:00 34,1 8,7 8 4 E 1020,7 20 0,0
23.09.2018 12:00:00 31,5 9,7 11 6 ENE 1021,3 20 0,0
23.09.2018 11:00:00 28,8 11,4 9 5 ENE 1021,5 20 -
23.09.2018 10:00:00 24,3 12,3 11 6 NE 1020,9 20 0,0
23.09.2018 09:00:00 20,7 11,3 5 3 NNE 1020,6 20 0,0
23.09.2018 08:00:00 20,5 11,1 5 3 N 1020,2 20 -
23.09.2018 07:00:00 20,3 11,8 9 5 NNE 1019,8 20 0,0
23.09.2018 06:00:00 20,5 11,9 8 4 NNE 1020,1 20 0,0
23.09.2018 05:00:00 20,7 12,7 9 5 NE 1019,9 20 -
23.09.2018 04:00:00 21,3 11,3 4 2 NE 1020,5 20 0,0
23.09.2018 03:00:00 22,3 12,3 8 4 NNE 1020,9 20 0,0
23.09.2018 02:00:00 22,5 13,6 4 2 NE 1020,9 20 -
23.09.2018 01:00:00 23,2 11,9 2 1 E 1021,2 20 0,0
23.09.2018 00:00:00 25,2 13,4 8 4 NNW 1021,3 20 0,0
22.09.2018 23:00:00 25,4 13,9 4 2 NNW 1020,7 20 -
22.09.2018 22:00:00 26,8 14,9 5 3 WNW 1020,3 20 0,0
22.09.2018 21:00:00 28,4 14,6 8 4 WSW 1019,7 20 0,0
22.09.2018 20:00:00 30,4 14,1 11 6 SSW 1019,3 20 -
22.09.2018 19:00:00 32,5 14,1 15 8 SSW 1018,9 20 0,0
22.09.2018 18:00:00 33,7 13,2 18 10 SW 1018,8 20 0,0
22.09.2018 17:00:00 35,0 15,3 15 8 SW 1018,7 20 -
22.09.2018 16:00:00 36,2 15,3 15 8 SW 1019,0 20 0,0
22.09.2018 15:00:00 35,7 16,4 16 9 SSW 1019,4 19 0,0
22.09.2018 14:00:00 35,7 12,6 9 5 ENE 1019,9 20 -
22.09.2018 13:00:00 33,1 14,7 5 3 NE 1020,6 19 0,0
22.09.2018 12:00:00 30,8 14,8 5 3 ENE 1020,8 19 0,0
22.09.2018 11:00:00 27,3 15,6 5 3 NE 1020,7 17 -
22.09.2018 10:00:00 23,5 14,5 8 4 NE 1020,5 20 0,0
22.09.2018 09:00:00 20,4 14,1 8 4 N 1019,9 19 0,0
22.09.2018 08:00:00 19,4 14,4 5 3 NNE 1019,5 20 -
22.09.2018 07:00:00 19,8 14,8 5 3 NNE 1019,1 20 0,0
22.09.2018 06:00:00 20,0 15,4 5 3 NNE 1019,0 20 0,0
22.09.2018 05:00:00 21,6 17,4 5 3 NW 1018,6 20 -
22.09.2018 04:00:00 21,6 17,4 2 1 S 1018,6 20 0,0
22.09.2018 03:00:00 21,0 18,4 4 2 W 1018,8 16 0,0
22.09.2018 02:00:00 22,8 16,3 4 2 NE 1018,9 20 -
22.09.2018 01:00:00 22,9 17,4 2 1 NE 1018,8 20 0,0
22.09.2018 00:00:00 23,5 17,3 5 3 NNE 1018,6 20 0,0
21.09.2018 23:00:00 24,7 17,2 5 3 NW 1018,4 20 -
21.09.2018 22:00:00 25,5 17,2 5 3 WNW 1018,0 20 0,0
21.09.2018 21:00:00 26,9 17,1 8 4 W 1017,4 20 0,0
21.09.2018 20:00:00 - - - - - - - -
21.09.2018 19:00:00 31,4 16,9 15 8 SW 1016,8 20 0,0
21.09.2018 18:00:00 32,0 17,1 15 8 SW 1016,9 20 0,0
21.09.2018 17:00:00 32,3 17,0 15 8 SW 1017,3 20 -
21.09.2018 16:00:00 32,0 16,7 15 8 SW 1017,6 20 0,0
21.09.2018 15:00:00 31,4 16,6 16 9 WSW 1018,2 20 0,0
21.09.2018 14:00:00 31,5 15,9 11 6 WSW 1018,8 16 -
21.09.2018 13:00:00 30,0 16,4 8 4 WSW 1019,3 20 0,0
21.09.2018 12:00:00 27,8 16,1 8 4 WNW 1019,5 20 0,0
21.09.2018 11:00:00 24,7 15,9 5 3 NW 1019,0 11 -
21.09.2018 10:00:00 22,3 14,9 5 3 NNW 1018,6 20 0,0
21.09.2018 09:00:00 20,4 14,3 4 2 N 1018,4 20 0,0
21.09.2018 08:00:00 20,3 14,6 4 2 NW 1018,1 12 -
21.09.2018 07:00:00 20,2 18,3 8 4 N 1017,5 13 0,0
21.09.2018 06:00:00 20,8 17,8 5 3 N 1017,0 15 0,0
21.09.2018 05:00:00 21,6 15,7 4 2 NE 1017,2 20 -
21.09.2018 04:00:00 22,7 15,8 5 3 W 1017,6 20 0,0
21.09.2018 03:00:00 23,2 19,8 5 3 SW 1017,7 16 0,0
21.09.2018 02:00:00 23,7 20,2 4 2 S 1017,8 13 -
21.09.2018 01:00:00 23,9 20,2 8 4 S 1018,0 14 0,0
21.09.2018 00:00:00 24,9 20,4 8 4 SSW 1018,0 19 0,0
20.09.2018 23:00:00 25,2 19,6 9 5 SW 1017,8 20 -
20.09.2018 22:00:00 25,6 19,3 9 5 WSW 1017,5 20 0,0
20.09.2018 21:00:00 25,6 19,5 13 7 WSW 1017,1 20 0,0
20.09.2018 20:00:00 26,6 19,7 15 8 SW 1016,9 20 -
20.09.2018 19:00:00 29,3 18,7 16 9 WSW 1016,7 20 0,0
20.09.2018 18:00:00 30,1 18,8 21 11 WSW 1017,0 20 0,0
20.09.2018 17:00:00 30,9 19,6 16 9 SW 1017,4 20 -
20.09.2018 16:00:00 30,9 19,9 15 8 WSW 1017,9 20 0,0
20.09.2018 15:00:00 31,4 19,1 13 7 SSW 1018,3 19 0,0
20.09.2018 14:00:00 30,6 18,7 11 6 SSW 1019,1 9 -
20.09.2018 13:00:00 30,0 19,1 9 5 SSW 1019,6 19 0,0
20.09.2018 12:00:00 28,6 19,0 9 5 SSW 1019,7 18 0,0
20.09.2018 11:00:00 26,4 19,8 4 2 NE 1019,7 9 -

tt = temperature
td = dewpoint
ff = wind speed
dd = wind direction
ppp = reduced air pressure
vv = visibility
rr = precipitation

Next stations